Location: Newark
(0.5300°S, 127.4800°E)
Time: 13:25:17
(UTC+00:00)

Vanguard 3 - Pass Details

Date: 19 September 2019
Orbit: 508 x 3262 km, 33.3° (Epoch: 20 October)

Event Time Altitude Azimuth Distance (km) Brightness Sun altitude
Rises 22:16:17 0° 264° (W) 4,758 10.4 13.1°
Reaches altitude 10° 22:19:22 10° 273° (W) 4,117 10.2 13.9°
Maximum altitude 22:29:57 36° 335° (NNW) 3,467 10.3 16.5°
Drops below altitude 10° 22:45:45 10° 35° (NE) 6,046 12.2 20.5°
Sets 22:51:39 0° 43° (NE) 7,201 12.6 21.9°
